Regional Weather Roundup
Issued by NWS

Home | Current Version | Previous Version | Text Only | Print | Product List | Glossary On
Versions: 1 2 3 4 5 6 7 8 9 10 11 12 13 14 15 16 17 18 19 20 21 22 23 24 25 26 27 28 29 30 31 32 33 34 35 36 37 38 39 40 41 42 43 44 45 46 47 48 49 50
000
ASUS43 KBIS 120702
RWRND

NORTH DAKOTA REGIONAL WEATHER ROUNDUP
NATIONAL WEATHER SERVICE BISMARCK ND
100 AM CST TUE DEC 12 2017

NOTE: "FAIR" INDICATES FEW OR NO CLOUDS BELOW 12,000 FEET WITH NO
SIGNIFICANT WEATHER AND/OR OBSTRUCTIONS TO VISIBILITY.


NDZ001>003-009>011-017-120800-
NORTHWEST NORTH DAKOTA

CITY           SKY/WX    TMP DP  RH WIND       PRES   REMARKS
WILLISTON        N/A    N/A N/A N/A MISG      30.25F
MINOT          CLOUDY    29  26  89 SW9       30.20F
MINOT AFB      PTCLDY    29  26  87 SW10      30.18F
$$

NDZ018>021-031>035-040>046-120800-
SOUTHWEST NORTH DAKOTA

CITY           SKY/WX    TMP DP  RH WIND       PRES   REMARKS
BISMARCK       CLOUDY    25  23  92 CALM      30.29F
DICKINSON      CLOUDY    26  24  92 W10       30.25F WCI  16
GARRISON         N/A     25  24  96 W8        30.25F WCI  16
HETTINGER ARPT CLOUDY    21  19  92 W6        30.31F WCI  13
$$

NDZ004>008-012>016-024-026-027-054-120800-
NORTHEAST NORTH DAKOTA

CITY           SKY/WX    TMP DP  RH WIND       PRES   REMARKS
GRAND FORKS    CLOUDY     8   6  92 SW8       30.27F WCI  -4
GRND FRKS AFB  CLOUDY    12   8  82 SW7       30.27F WCI   2
DEVILS LAKE    CLOUDY    20  17  88 SW9       30.22F WCI   9
$$

NDZ022-023-025-028>030-036>039-047>053-120800-
SOUTHEAST NORTH DAKOTA

CITY           SKY/WX    TMP DP  RH WIND       PRES   REMARKS
FARGO          CLOUDY     4   0  83 SW7       30.31F WCI  -8
JAMESTOWN      CLOUDY    14  12  92 SW3       30.25F
$$




USA.gov is the U.S. government's official web portal to all federal, state and local government web resources and services.